Location: Ku?niki
(51.4449°N, 17.8974°E)
Time: 04:47:27
(UTC+00:00)

DX 1 - Pass Details

Date: 27 June 2022
Orbit: 616 x 630 km, 98.4° (Epoch: 17 August)

Event Time Altitude Azimuth Distance (km) Brightness Sun altitude
Rises 21:20:29 0° 6° (N) 2,937 ? -12.6°
Reaches altitude 10° 21:23:00 10° 353° (N) 2,024 ? -12.8°
Maximum altitude 21:26:31 24° 299° (WNW) 1,307 ? -13.0°
Drops below altitude 10° 21:30:02 10° 246° (WSW) 2,009 ? -13.1°
Sets 21:32:32 0° 232° (SW) 2,910 ? -13.3°
